This demonstration page uses our WeatherBlox Daily Observations layout. Learn more.

39.92423, -83.80882

Hourly Observations for July 3, 2018

Temp ( °F °C ) Dew Point ( °F °C ) Humidity (%) Winds ( mph kmh ) Pressure ( in mb ) Visibility ( mi km ) Precip ( " mm )
12:56 am 00:56 Clear 70 21.1 69 20.6 97 97 ESE 5 7 30.13 1020 10 16.0934 0 0
1:56 am 01:56 Clear 70 21.1 69 20.6 97 97 ESE 3 6 30.13 1020 9 14.48406 0 0
2:56 am 02:56 Clear 70 21.1 69 20.6 97 97 Calm 30.12 1020 8 12.87472 0 0
3:56 am 03:56 Clear 69 20.6 69 20.6 100 100 S 3 6 30.12 1020 8 12.87472 0 0
4:56 am 04:56 Clear 67 19.4 67 19.4 100 100 ESE 3 6 30.12 1020 8 12.87472 0 0
5:56 am 05:56 Clear 67 19.4 67 19.4 100 100 NE 3 6 30.14 1021 10 16.0934 0 0
6:56 am 06:56 Sunny 68 20 67 19.4 96 96 ESE 5 7 30.14 1021 8 12.87472 0 0
7:56 am 07:56 Sunny 72 22.2 71 21.7 97 97 E 3 6 30.16 1021 10 16.0934 0 0
8:56 am 08:56 Sunny 76 24.4 72 22.2 88 88 SE 8 13 30.18 1022 10 16.0934 0 0
9:56 am 09:56 Sunny 78 25.6 72 22.2 82 82 ESE 3 6 30.19 1022 10 16.0934 0 0
11:56 am 11:56 Sunny 83 28.3 75 23.9 77 77 SE 6 9 30.19 1022 10 16.0934 0 0
1:56 pm 13:56 Sunny 85 29.4 76 24.4 75 75 SSE 9 15 30.18 1022 10 16.0934 0 0
2:56 pm 14:56 Sunny 85 29.4 75 23.9 72 72 SSE 8 13 30.17 1022 10 16.0934 0 0
3:56 pm 15:56 Sunny 87 30.6 74 23.3 65 65 SSE 8 13 30.16 1021 10 16.0934 0 0
4:56 pm 16:56 Sunny 87 30.6 74 23.3 65 65 SE 9 15 30.16 1021 10 16.0934 0 0
5:56 pm 17:56 Sunny 84 28.9 73 22.8 70 70 SSW 5 7 30.18 1022 10 16.0934 0 0
6:25 pm 18:25 Partly Cloudy with Nearby Thunderstorms 79 26 70 21 74 74 W 13 20 30.18 1022 10 16.0934 0 0
6:56 pm 18:56 Partly Cloudy with Thunderstorms 75 23.9 70 21.1 84 84 WSW 10 17 30.19 1023 10 16.0934 0 0
7:42 pm 19:42 Partly Cloudy with Nearby Thunderstorms 75 24 72 22 89 89 ESE 3 6 30.18 1022 10 16.0934 0 0.0254
7:56 pm 19:56 Partly Cloudy with Nearby Thunderstorms 74 23.3 71 21.7 91 91 SE 5 7 30.2 1023 10 16.0934 0 0.0254
8:03 pm 20:03 Partly Cloudy with Rain 73 23 72 22 94 94 SSE 6 9 30.18 1022 10 16.0934 0.01 0.254
8:56 pm 20:56 Sunny 72 22.2 71 21.7 97 97 ENE 3 6 30.18 1022 10 16.0934 0.01 0.254
9:56 pm 21:56 Clear 72 22.2 71 21.7 97 97 Calm 30.19 1022 10 16.0934 0 0
10:56 pm 22:56 Clear 73 22.8 71 21.7 94 94 Calm 30.2 1023 10 16.0934 0 0
11:56 pm 23:56 Clear 71 21.7 71 21.7 100 100 Calm 30.22 1023 10 16.0934 0 0

Powered by AerisWeather